Theta_e
303 297 293 296 299 300 299 296 296 301 305 302 302 303 306 308 307 307 306 306 308 308 312 314 317 316 315 317 318 318 319 320 321 318 319 318 319 322 323 326 326 325 322 323
297 293 298 302 301 299 297 297 296 300 304 301 301 301 306 307 306 305 306 306 306 308 312 315 315 314 314 317 319 319 320 319 320 318 322 320 321 322 323 324 325 327 325 326
293 299 302 300 298 297 297 296 298 298 302 303 300 298 301 306 307 308 307 307 309 309 310 313 315 313 314 316 318 320 320 320 318 321 321 320 320 321 322 323 324 323 324 327
294 300 300 297 295 298 294 301 301 301 298 292 300 289 296 301 302 304 305 305 307 309 311 314 314 312 313 314 317 320 320 318 320 320 319 319 318 317 319 320 321 321 323 324
293 296 295 294 296 300 297 302 300 300 298 294 296 290 294 299 300 303 304 305 307 309 311 312 313 314 314 317 317 320 317 320 321 319 320 320 317 319 319 319 319 320 322 325
296 300 298 297 300 301 303 300 299 299 296 289 295 293 295 296 300 302 304 307 307 308 310 312 315 314 314 315 317 317 316 318 320 320 320 319 318 318 317 317 318 318 319 323
295 295 299 300 296 300 300 294 287 283 285 287 295 292 295 300 303 304 303 305 307 309 311 314 314 313 312 314 315 316 316 317 318 319 320 319 320 318 316 316 317 316 316 317
289 287 295 300 297 294 294 293 289 282 283 287 296 290 295 303 305 306 307 308 308 308 312 313 314 313 312 314 315 316 315 314 314 317 319 319 320 318 317 318 318 317 317 317
289 289 300 300 300 298 294 292 297 290 291 287 290 295 302 303 303 306 307 308 307 308 311 313 314 312 310 312 314 314 316 315 313 317 319 320 321 320 319 319 319 318 318 320
293 288 298 299 300 299 296 298 291 289 284 282 288 291 293 297 300 306 306 306 306 308 311 313 313 311 310 312 311 311 316 314 316 317 317 322 325 322 322 319 319 319 319 320
295 291 293 298 294 293 293 292 293 293 290 285 282 288 298 300 300 306 306 307 308 309 311 313 312 312 310 310 309 311 315 313 314 317 317 323 324 323 323 322 319 320 320 320
297 290 288 292 297 300 297 294 295 291 287 289 288 290 301 302 303 308 307 309 309 311 312 312 312 311 310 309 310 313 314 314 314 316 316 323 324 323 322 321 321 321 320 321
296 291 286 290 292 298 294 297 296 293 292 289 287 289 304 305 307 309 308 308 309 309 310 311 310 311 311 310 311 312 315 314 314 316 315 323 323 321 323 321 321 322 322 322
297 292 290 287 291 295 292 296 299 294 288 289 292 294 299 304 308 308 309 309 309 311 312 312 311 310 311 312 312 313 314 313 314 314 316 320 321 321 321 322 321 322 323 323
291 291 293 294 297 298 297 297 299 297 295 293 294 296 299 303 309 310 310 309 309 310 311 312 312 309 310 310 312 314 314 311 314 314 317 320 320 321 323 323 321 322 322 323
291 287 294 292 296 296 295 299 300 300 297 297 298 297 303 308 310 309 310 309 309 310 312 313 313 311 310 311 313 314 314 310 315 313 314 320 320 323 323 323 321 323 322 320
287 289 290 289 295 295 291 297 300 300 301 299 295 298 302 303 308 310 309 310 310 311 312 313 314 313 311 311 314 313 313 311 315 313 315 317 317 323 320 321 319 320 316 316
288 287 288 289 292 285 296 303 304 301 301 302 299 301 303 306 307 313 313 311 311 312 313 314 315 314 312 312 313 314 312 312 315 314 316 315 317 321 318 318 318 317 315 315
292 288 287 285 289 293 299 301 301 298 297 301 302 302 304 305 307 308 314 314 313 313 314 315 317 315 312 312 313 314 311 310 315 315 315 314 317 321 319 316 316 316 314 313
294 293 292 289 284 284 296 303 307 305 296 303 303 303 303 307 302 305 313 315 314 314 315 316 317 314 313 313 314 314 310 309 313 314 316 315 316 320 320 316 317 317 315 314
292 293 288 289 284 293 301 305 308 295 295 304 305 305 305 303 306 311 315 315 315 315 315 317 316 313 314 314 315 313 310 309 311 314 316 315 315 317 321 318 319 319 318 316
288 287 288 289 286 288 302 304 298 300 307 307 305 304 305 306 306 308 314 316 317 315 315 317 317 314 314 315 315 314 310 311 311 313 314 314 314 319 323 321 319 320 318 316
287 291 288 291 293 296 302 300 300 300 301 309 307 308 308 307 308 312 311 315 317 316 317 319 317 314 314 316 316 314 314 313 312 311 311 311 315 318 324 322 319 318 318 316
291 295 291 290 299 295 298 300 301 301 300 306 310 309 309 308 309 311 314 315 317 318 318 319 317 314 314 316 316 316 317 316 314 311 309 309 315 320 324 324 323 321 318 317
291 293 291 292 295 295 299 299 300 301 302 302 309 311 311 308 308 312 314 316 318 319 319 320 317 316 316 316 316 317 318 318 314 311 311 310 315 322 323 324 322 322 321 319
295 291 289 288 295 295 295 299 302 300 300 302 303 309 310 313 308 313 315 317 319 320 320 320 319 318 318 317 317 318 319 319 316 313 312 311 316 321 322 320 310 296 303 302
Wind_Speed
15 12 17 26 22 12 8 7 9 20 24 5 12 15 23 15 10 14 10 10 10 9 6 8 10 10 9 8 9 8 7 6 3 1 1 1 4 3 3 4 6 6 5 6
7 25 24 16 15 13 12 14 18 21 23 6 17 19 22 12 7 9 12 11 7 7 10 12 11 9 8 9 8 8 7 6 4 2 2 3 3 3 4 1 3 5 6 6
23 7 18 17 15 13 16 18 17 18 20 16 11 16 10 6 3 3 6 4 8 17 15 14 13 10 9 9 9 8 8 7 4 3 2 1 2 2 1 1 3 3 2 4
19 21 16 21 18 17 19 17 19 16 12 9 6 8 6 6 5 5 7 7 10 14 12 15 13 10 10 8 8 8 7 7 4 5 2 3 2 2 1 1 1 0 1 2
17 21 24 21 26 21 19 17 18 20 14 8 22 4 9 6 6 9 10 5 10 17 19 17 14 13 7 8 8 7 8 6 6 5 3 3 0 1 0 1 2 0 1 0
26 5 21 23 18 22 22 11 12 12 9 11 16 7 14 5 8 6 2 7 9 9 9 9 11 10 8 7 7 7 8 5 5 4 3 5 4 4 4 1 2 1 1 2
14 25 16 15 21 20 14 9 4 3 4 12 10 7 13 7 8 8 8 8 8 9 12 14 14 9 8 9 8 7 7 5 6 4 6 5 5 6 6 1 1 1 1 1
17 13 27 21 20 18 20 14 9 8 6 4 6 6 12 9 4 7 7 10 11 10 10 13 13 11 9 9 9 8 8 5 4 5 6 4 6 4 3 2 2 2 2 3
16 17 8 21 19 20 14 16 20 4 4 2 5 7 9 5 6 6 10 12 11 11 12 14 12 9 9 9 9 9 8 5 4 6 6 4 4 6 5 4 3 3 3 2
5 5 17 16 15 24 26 6 7 2 10 7 4 4 6 1 7 6 8 10 8 8 11 12 11 9 8 9 7 7 7 8 6 6 5 5 5 5 5 4 4 5 3 2
9 3 5 16 23 27 11 10 6 5 7 10 3 9 9 13 10 16 13 13 14 14 14 13 10 9 9 8 8 7 7 7 6 5 4 5 5 4 5 4 4 5 4 4
24 5 11 22 4 17 14 14 11 9 5 2 7 12 3 12 13 16 12 12 10 12 13 12 11 10 9 9 7 8 7 7 7 5 4 5 6 5 6 5 5 4 5 4
7 17 9 9 2 8 17 15 9 6 5 9 8 9 3 5 12 13 14 10 11 11 12 11 9 11 11 8 7 7 7 7 7 5 6 5 6 6 6 5 5 5 6 6
10 7 29 16 11 6 6 18 14 9 6 7 9 5 3 2 13 9 11 13 15 16 16 14 11 10 10 10 8 7 7 7 7 7 6 7 5 5 5 5 5 6 5 6
8 14 21 30 18 5 8 18 19 17 13 12 8 11 9 11 16 18 15 12 14 15 15 16 14 11 11 9 8 7 7 7 7 7 7 7 6 5 6 6 5 5 5 5
10 8 16 23 29 27 18 15 22 17 9 8 12 9 8 17 8 9 15 17 17 18 18 17 16 14 13 13 12 9 7 8 8 8 7 6 4 6 5 7 5 6 5 4
5 5 4 22 19 19 21 21 19 19 15 14 12 8 8 8 14 17 15 19 20 19 19 18 18 17 14 13 13 11 9 8 9 8 7 7 5 6 6 7 5 6 6 5
9 4 4 9 11 10 9 14 15 22 19 12 5 10 12 13 15 18 21 21 18 19 19 18 17 15 14 12 13 10 10 11 12 9 7 6 6 6 7 7 7 5 5 6
19 8 6 5 15 5 4 6 12 10 7 10 18 11 12 8 7 5 18 20 22 20 19 18 17 18 14 15 14 13 11 12 13 11 9 7 7 6 7 7 8 6 6 4
16 17 4 4 9 8 4 5 12 9 12 11 12 13 11 9 7 6 16 17 15 16 16 17 16 14 15 15 14 15 13 13 14 13 12 9 8 7 8 8 8 5 5 6
5 4 12 6 4 2 13 20 4 12 5 11 14 14 13 9 9 10 18 13 15 17 17 14 15 18 18 15 15 15 14 15 14 14 12 10 8 9 9 7 5 6 6 6
5 5 3 4 1 5 25 8 10 8 17 15 8 10 11 10 8 8 19 18 17 17 13 16 16 15 15 16 16 15 16 15 12 13 13 12 9 9 8 10 5 6 7 7
2 5 4 5 1 7 7 8 5 9 12 17 18 11 14 10 9 12 13 15 18 18 17 17 17 15 14 17 18 17 15 14 13 11 14 12 11 9 11 11 7 5 6 6
4 7 3 7 2 16 9 10 13 16 19 19 20 17 6 12 11 9 13 15 16 16 16 16 15 16 16 16 17 17 15 15 14 12 12 11 12 9 10 9 9 8 6 5
2 5 7 6 9 19 0 15 19 21 21 24 26 20 16 2 9 10 10 14 15 16 15 16 16 16 18 17 15 14 15 16 14 11 11 12 11 13 11 10 9 10 9 10
5 4 3 4 12 7 15 15 17 19 25 24 24 24 22 12 5 10 12 14 15 15 15 14 16 16 16 18 17 15 16 15 15 11 10 11 10 10 10 9 4 8 3 11
Wind_Direction
198 206 212 216 218 226 238 236 247 261 268 279 268 271 271 259 243 220 218 232 234 198 141 134 143 146 139 130 128 148 153 163 139 148 279 285 247 261 248 204 217 218 227 231
198 221 217 222 224 217 230 241 248 272 269 259 273 281 286 265 227 212 213 233 216 137 143 141 153 156 144 145 151 155 169 158 171 148 210 200 234 265 244 226 257 251 225 224
210 229 202 209 220 225 227 230 244 244 278 277 277 279 266 296 239 241 276 272 144 166 158 160 165 158 140 148 164 166 171 162 159 146 120 31 6 299 337 272 256 244 230 178
234 220 202 211 221 214 235 227 241 251 255 257 138 280 276 242 267 256 272 215 182 172 163 160 160 155 154 167 163 158 161 153 150 157 141 179 199 263 266 251 259 249 156 176
209 194 216 224 217 216 229 223 235 246 247 262 280 294 267 274 275 271 290 210 174 175 167 162 161 154 162 153 155 159 146 148 166 188 151 139 311 278 39 68 96 38 12 69
217 191 209 221 221 219 233 241 240 258 243 253 243 212 262 221 226 254 230 193 177 153 138 123 137 148 150 144 141 147 146 161 195 198 165 136 120 111 90 75 82 322 64 37
210 222 237 202 216 230 215 201 252 300 196 239 213 191 240 226 228 222 196 195 157 146 141 145 152 151 150 150 151 147 148 176 216 151 174 145 147 117 108 141 109 68 80 81
208 223 210 215 211 212 220 210 197 183 218 234 208 227 258 223 235 206 151 153 139 139 146 151 156 161 156 155 156 149 160 192 202 150 175 173 144 124 128 145 128 85 104 125
193 227 243 205 210 205 221 210 223 211 319 121 211 283 319 263 138 131 131 145 149 153 152 151 162 160 151 154 165 162 170 201 190 170 166 179 153 139 149 125 103 107 127 137
232 217 232 205 196 231 219 138 227 305 202 214 267 243 228 167 155 151 157 157 148 138 143 158 163 157 158 162 163 168 174 182 187 199 150 194 164 144 153 133 132 147 135 120
221 123 304 206 203 208 198 197 197 174 163 187 199 262 195 200 181 172 174 167 161 164 159 162 161 165 159 158 159 167 171 171 174 201 165 180 148 152 145 157 164 156 138 143
211 167 238 240 293 201 209 202 179 210 233 164 154 259 219 212 172 168 172 170 169 158 158 159 161 158 155 163 165 166 163 166 173 175 142 144 133 134 137 148 160 143 145 137
256 217 252 324 232 241 203 200 176 141 120 188 156 259 359 128 150 173 157 165 157 152 151 155 153 163 164 168 170 170 164 179 167 160 114 126 136 130 131 140 146 130 135 135
306 227 208 219 220 164 202 200 187 147 145 163 196 198 229 207 154 171 169 161 164 165 163 165 163 168 165 171 173 174 174 168 163 146 126 139 163 145 133 137 138 139 143 131
4 222 205 222 235 249 219 212 192 187 181 171 201 191 218 191 176 181 171 158 157 164 168 174 171 172 168 168 173 179 172 151 159 144 138 162 184 135 141 140 144 134 133 129
335 292 203 221 226 238 249 229 196 192 177 140 178 208 201 190 170 143 170 164 171 176 177 178 178 173 172 173 178 180 168 154 154 149 158 168 188 153 181 136 141 122 126 114
271 325 296 223 218 231 236 234 208 183 177 150 185 201 168 148 174 178 173 177 179 179 179 179 182 182 176 174 176 179 165 148 156 155 165 161 161 142 164 137 135 122 113 111
238 305 279 222 207 215 228 206 201 198 182 186 158 175 168 189 187 188 183 177 184 181 180 185 181 181 178 168 172 168 145 158 160 162 166 165 155 153 127 133 155 121 124 129
207 204 275 192 202 240 215 218 179 163 233 178 183 195 193 158 104 185 186 182 185 185 183 183 181 180 171 168 169 163 155 157 162 170 168 171 158 155 132 129 138 131 123 121
179 201 207 322 148 195 172 285 193 150 223 191 175 185 192 139 140 224 190 194 192 183 181 178 177 170 170 172 162 160 164 161 170 172 177 171 160 158 154 150 144 148 143 146
297 173 220 233 257 69 344 317 102 161 274 314 187 191 183 179 179 187 180 182 187 181 179 172 163 170 178 164 160 167 168 177 174 172 174 170 167 162 164 162 147 141 144 139
310 300 3 318 169 65 350 350 59 302 314 330 229 176 180 188 178 158 176 182 179 181 167 169 172 172 169 167 165 166 177 179 168 164 171 176 174 170 162 161 160 153 137 143
213 6 304 28 226 344 327 55 353 307 339 2 355 292 163 158 165 162 169 175 175 172 175 174 173 166 169 172 172 171 181 171 174 164 173 176 172 167 163 166 164 150 159 148
297 2 296 325 241 341 306 354 338 358 359 349 358 343 203 156 157 156 156 164 167 166 172 171 163 167 170 180 179 181 167 175 171 171 172 168 167 166 168 174 170 171 173 164
243 314 317 289 308 333 97 352 347 346 350 1 358 353 348 231 164 151 156 160 161 165 169 166 171 174 178 176 179 174 173 172 175 168 168 170 172 172 173 175 177 181 193 182
153 202 67 288 297 260 286 326 339 348 355 355 348 338 342 355 240 154 166 170 160 165 169 170 176 175 177 178 178 176 176 175 171 166 168 172 170 172 172 165 143 33 167 187